STARLINK-11511, 62468

Orbit data source: Space-Track

STARLINK-11511, 62468 is a payload satellite owned by SpaceX/Seattle (US) in LEO that was launched on Tue, 31 Dec 2024 UTC via an FALCON 9 launch vehicle from the Air Force Eastern Test Range (AFETR). Payload-class satellites include a variety of spacecraft equipped with specific instruments for various scientific and technological missions. These include communications satellites like Starlink; space stations such as the ISS; scientific satellites like the Hubble; Earth observation satellites from companies like Planet Labs, Umbra, and HawkEye 360; GPS; miniature CubeSats for education and research; and military/defense satellites.

Loading next visibility...
Identifier
62468, 2024-254G
Orbit
LEO
Country
Flag of USUS
Related business
Manufacturer
SpaceX/Seattle
Mission
Operational Commercial Communications
Bus & Motor
STARLINK V2MD, Unknown motor
Mass
960 kg wet, ~910 kg dry
Launch date (UTC)
2024-12-31 (1 year ago)
Launch vehicle
FALCON 9
Launch site
Air Force Eastern Test Range (AFETR)
Object type
Payload
Rocket body
Debris
Shape & HBR
Box + 2 Pan, 18.1 m
Radar Cross Section
36.964 m², Large (>1 m²)

Expand to show TLE details & history
Last TLE update: 6 hours ago

TLE from 6 hours ago
0 STARLINK-11511
1 62468U 24254G   26036.08807196  .00320552  00000-0  23894-2 0  9994
2 62468  42.9989  59.5095 0001745 218.9411 141.1331 15.71010820 64273
Epoch: 2026-02-05T02:06Z
TLE epoch observation values (Epoch: 2026-02-05T02:06:49.417Z)
Latitude
-0.00003°
Longitude
-107.44176°
Altitude
356.693 km
Speed
7.697 km/s
True Right ascension
03h 58m 02s
True Declination
0° 00' 00"
Sunlit
Object was in daylight at epoch
Visualization orbit readout
Latitude
Unknown
Longitude
Unknown
Altitude
Unknown
Speed
Unknown
Apparent Right ascension
Unknown
Apparent Declination
Unknown
Sunlit
N/A
Visualization observer readout
Local Sidereal Time
10:01:31
Azimuth
Unknown
Elevation
Unknown
Doppler factor
Unknown
Orbital elements
Apogee altitude
359.164 km
Perigee altitude
356.813 km
Semi-major axis
6,736.126 km
Eccentricity
0.00017
Inclination
42.9989°
RAAN
59.5095°
Arg. of periapsis
218.9411°
True anomaly
141.14565°
Mean anomaly
141.1331°
Eccentric anomaly
141.13937°
Mean motion
3.9258 °/min
Orbital period
91.7 mins
BSTAR
0.0023894
Loading maneuver chart data...
Computing Atmospheric mass density...
Loading historical data...
Loading historical data...
Loading historical data...
Loading historical data...
Loading historical data...
Loading historical data...
Loading historical data...

Documentation

Showing up to 5 results
|